This is the latest recevied weather packets stored in our database for station/object BG4WDV-11. If no packets are shown the sender has not sent any weather packets the latest 10 day(s).
| Time | Temp. | Humidity | Pressure | Rain* | Wind** | Luminosity | Snow |
|---|---|---|---|---|---|---|---|
| 1777520342 | 20.56° C | 59% | 1016.4 hPa | 0 mm | - | - | - |
| 1777520281 | 20.56° C | 59% | 1016.4 hPa | 0 mm | - | - | - |
| 1777520221 | 20.56° C | 61% | 1016.8 hPa | 0 mm | - | - | - |
| 1777520162 | 20.56° C | 60% | 1016.4 hPa | 0 mm | - | - | - |
| 1777520101 | 20.56° C | 59% | 1016.5 hPa | 0 mm | - | - | - |
| 1777520041 | 20.56° C | 58% | 1016.7 hPa | 0 mm | - | - | - |
| 1777519981 | 20.56° C | 57% | 1016.6 hPa | 0 mm | - | - | - |
| 1777519921 | 20.56° C | 57% | 1016.7 hPa | 0 mm | - | - | - |
| 1777519861 | 21.11° C | 57% | 1016.7 hPa | 0 mm | - | - | - |
| 1777519801 | 21.11° C | 57% | 1016.7 hPa | 0 mm | - | - | - |
| 1777519741 | 21.67° C | 57% | 1016.6 hPa | 0 mm | - | - | - |
| 1777519681 | 21.67° C | 57% | 1016.8 hPa | 0 mm | - | - | - |
| 1777519621 | 21.67° C | 57% | 1016.7 hPa | 0 mm | - | - | - |
| 1777519561 | 21.67° C | 56% | 1016.7 hPa | 0 mm | - | - | - |
| 1777519501 | 22.22° C | 55% | 1016.5 hPa | 0 mm | - | - | - |
| 1777519441 | 22.22° C | 55% | 1016.4 hPa | 0 mm | - | - | - |
| 1777519381 | 22.22° C | 54% | 1016.5 hPa | 0 mm | - | - | - |
| 1777519321 | 22.22° C | 54% | 1016.4 hPa | 0 mm | - | - | - |
| 1777519261 | 22.22° C | 54% | 1016.4 hPa | 0 mm | - | - | - |
| 1777519201 | 22.22° C | 54% | 1016.5 hPa | 0 mm | - | - | - |
| 1777519141 | 22.22° C | 55% | 1016.6 hPa | 0 mm | - | - | - |
| 1777519081 | 21.67° C | 57% | 1016.5 hPa | 0 mm | - | - | - |
| 1777519021 | 21.67° C | 58% | 1016.7 hPa | 0 mm | - | - | - |
| 1777518961 | 21.67° C | 59% | 1016.6 hPa | 0 mm | - | - | - |
| 1777518901 | 21.11° C | 60% | 1016.6 hPa | 0 mm | - | - | - |
* Rain latest hour (hover to see other rain measurements)
** Current wind speed in m/s (hover to see current wind gust speed)